Location: Chateh
(58.6667°N, 118.6000°W)
Time: 10:02:25
(UTC+00:00)

PCSat - Pass Details

Date: 10 December 2023
Orbit: 784 x 791 km, 67.0° (Epoch: 01 March)

Event Time Altitude Azimuth Distance (km) Brightness Sun altitude
Exits shadow 13:18:14 52° 311° (NW) 976 9.7 -23.1°
Maximum altitude 13:18:41 54° 330° (NNW) 958 9.7 -23.1°
Drops below altitude 10° 13:24:01 10° 48° (NE) 2,365 12.5 -22.4°
Sets 13:26:30 0° 53° (NE) 3,298 13.5 -22.1°
